DW3225 Weather Reports


Display with metric or nautical units.
time (UTC)temp
F
wind
direction
speed
MPH
gust
MPH
rain 1hr
in
rain 24hr
in
rain mn
in
humidity
%
barometer
mb
20260505041504 71 203 1.0 3.0 0.00 0.00 0.00 69 1001.5
20260505040505 71 196 1.0 3.0 0.00 0.00 0.00 70 1001.7
20260505040005 71 205 1.0 3.0 0.00 0.00 0.00 70 1001.7
20260505035504 71 218 1.0 6.0 0.00 0.00 0.00 70 1001.7
20260505035004 71 191 2.0 6.0 0.00 0.00 0.00 70 1001.7
20260505034504 71 188 1.0 3.0 0.00 0.00 0.00 70 1001.7
20260505034005 71 239 1.0 3.0 0.00 0.00 0.00 70 1001.8
20260505032504 71 241 1.0 3.0 0.00 0.00 0.00 69 1001.7
20260505032004 71 239 2.0 3.0 0.00 0.00 0.00 69 1001.7
20260505031504 72 249 2.0 3.0 0.00 0.00 0.00 68 1001.6
20260505031004 72 249 1.0 3.0 0.00 0.00 0.00 68 1001.6
20260505030504 72 249 2.0 3.0 0.00 0.00 0.00 67 1001.5
20260505030004 72 249 1.0 3.0 0.00 0.00 0.00 66 1001.5
20260505025504 73 249 1.0 3.0 0.00 0.00 0.00 65 1001.5
20260505025004 73 249 1.0 3.0 0.00 0.00 0.00 65 1001.4
20260505024504 73 249 1.0 3.0 0.00 0.00 0.00 64 1001.3
20260505024004 73 249 1.0 3.0 0.00 0.00 0.00 63 1001.3
20260505023504 74 249 1.0 3.0 0.00 0.00 0.00 62 1001.1
20260505023004 74 249 1.0 3.0 0.00 0.00 0.00 61 1001.0
20260505022504 74 249 1.0 3.0 0.00 0.00 0.00 61 1001.0
20260505022004 75 249 1.0 2.0 0.00 0.00 0.00 60 1001.0
20260505021504 75 249 1.0 3.0 0.00 0.00 0.00 59 1000.9
20260505021005 75 249 1.0 3.0 0.00 0.00 0.00 58 1000.9
20260505020004 76 249 2.0 3.0 0.00 0.00 0.00 57 1000.8
20260505015504 76 249 2.0 3.0 0.00 0.00 0.00 57 1000.7
20260505015004 76 251 1.0 3.0 0.00 0.00 0.00 57 1000.7
20260505014004 76 251 2.0 3.0 0.00 0.00 0.00 56 1000.6
20260505013504 76 248 1.0 3.0 0.00 0.00 0.00 55 1000.5
20260505013004 77 248 1.0 5.0 0.00 0.00 0.00 55 1000.4
20260505012505 77 248 1.0 5.0 0.00 0.00 0.00 54 1000.4
20260505012004 77 246 2.0 3.0 0.00 0.00 0.00 54 1000.3
20260505011511 78 241 2.0 5.0 0.00 0.00 0.00 53 1000.2
20260505011004 78 247 2.0 9.0 0.00 0.00 0.00 53 1000.2
20260505010505 78 247 2.0 9.0 0.00 0.00 0.00 52 1000.1
20260505010005 78 246 3.0 5.0 0.00 0.00 0.00 51 1000.0
20260505005506 79 246 2.0 5.0 0.00 0.00 0.00 50 999.9
20260505005006 79 250 0.0 3.0 0.00 0.00 0.00 50 999.9
20260505004506 80 250 0.0 3.0 0.00 0.00 0.00 49 999.8
20260505004006 80 249 1.0 3.0 0.00 0.00 0.00 48 999.9
20260505003506 80 249 1.0 3.0 0.00 0.00 0.00 49 999.8
20260505003006 80 249 2.0 3.0 0.00 0.00 0.00 48 999.7
20260505002506 80 242 1.0 3.0 0.00 0.00 0.00 48 999.6
20260505002006 80 242 2.0 3.0 0.00 0.00 0.00 47 999.6
20260505001506 80 242 0.0 3.0 0.00 0.00 0.00 49 999.7
20260505001006 80 242 1.0 3.0 0.00 0.00 0.00 48 999.7
20260505000506 80 240 2.0 3.0 0.00 0.00 0.00 48 999.7
20260505000005 80 240 2.0 6.0 0.00 0.00 0.00 48 999.8
20260504235005 80 236 2.0 6.0 0.00 0.00 0.00 48 999.6
20260504234505 80 252 2.0 6.0 0.00 0.00 0.00 47 999.7
20260504234006 80 252 2.0 8.0 0.00 0.00 0.00 47 999.7
20260504233506 80 255 2.0 8.0 0.00 0.00 0.00 47 999.7
20260504233006 81 223 3.0 12.0 0.00 0.00 0.00 46 999.7
20260504232505 81 241 3.0 12.0 0.00 0.00 0.00 45 999.7
20260504232006 82 234 3.0 12.0 0.00 0.00 0.00 44 999.8
20260504231506 82 230 4.0 10.0 0.00 0.00 0.00 44 999.8
20260504230506 81 243 5.0 12.0 0.00 0.00 0.00 44 999.7
20260504225505 82 319 5.0 12.0 0.00 0.00 0.00 43 999.6
20260504225006 82 237 3.0 12.0 0.00 0.00 0.00 44 999.7
20260504224505 82 237 4.0 12.0 0.00 0.00 0.00 43 999.7
20260504223506 82 286 3.0 9.0 0.00 0.00 0.00 43 999.7
20260504222506 82 281 3.0 12.0 0.00 0.00 0.00 45 999.7
20260504221505 81 235 3.0 7.0 0.00 0.00 0.00 45 999.8
20260504220506 80 243 3.0 10.0 0.00 0.00 0.00 46 999.9
20260504215506 80 204 3.0 10.0 0.00 0.00 0.00 44 999.9
20260504215006 80 270 5.0 10.0 0.00 0.00 0.00 46 1000.0
20260504214505 80 307 4.0 12.0 0.00 0.00 0.00 45 1000.2
20260504213505 80 253 3.0 12.0 0.00 0.00 0.00 45 1000.1
20260504213006 80 278 5.0 12.0 0.00 0.00 0.00 45 1000.1
20260504212505 80 244 3.0 12.0 0.00 0.00 0.00 45 1000.2
20260504211506 80 225 3.0 12.0 0.00 0.00 0.00 44 1000.2
20260504211006 80 223 4.0 14.0 0.00 0.00 0.00 44 1000.3
20260504210506 80 283 6.0 14.0 0.00 0.00 0.00 44 1000.3
20260504210006 80 236 4.0 13.0 0.00 0.00 0.00 45 1000.3
20260504205505 80 222 6.0 13.0 0.00 0.00 0.00 43 1000.4
20260504205005 81 279 5.0 14.0 0.00 0.00 0.00 42 1000.5
20260504204005 81 298 4.0 12.0 0.00 0.00 0.00 42 1000.6
20260504203506 81 214 5.0 13.0 0.00 0.00 0.00 41 1000.6
20260504203005 81 234 5.0 20.0 0.00 0.00 0.00 42 1000.7
20260504202505 82 261 5.0 20.0 0.00 0.00 0.00 41 1000.7
20260504201506 81 195 4.0 13.0 0.00 0.00 0.00 44 1000.6
20260504201005 81 244 5.0 15.0 0.00 0.00 0.00 42 1000.6
20260504200005 81 307 4.0 14.0 0.00 0.00 0.00 45 1000.7
20260504195006 80 231 6.0 17.0 0.00 0.00 0.00 43 1000.8
20260504194506 80 305 7.0 17.0 0.00 0.00 0.00 43 1000.8
20260504194005 81 237 6.0 12.0 0.00 0.00 0.00 43 1000.8
20260504193506 81 312 4.0 12.0 0.00 0.00 0.00 44 1000.8
20260504192006 80 209 5.0 12.0 0.00 0.00 0.00 44 1000.8
20260504191505 80 219 3.0 10.0 0.00 0.00 0.00 44 1000.8
20260504190506 80 237 3.0 10.0 0.00 0.00 0.00 45 1000.8
20260504190005 79 202 4.0 10.0 0.00 0.00 0.00 45 1000.8
20260504184505 78 237 4.0 12.0 0.00 0.00 0.00 45 1000.9
20260504184005 78 252 4.0 12.0 0.00 0.00 0.00 46 1001.0
20260504183505 78 229 4.0 12.0 0.00 0.00 0.00 45 1001.0
20260504183005 77 233 4.0 14.0 0.00 0.00 0.00 46 1001.2
20260504182505 77 249 5.0 14.0 0.00 0.00 0.00 45 1001.3
20260504182005 77 299 4.0 14.0 0.00 0.00 0.00 46 1001.4
20260504181505 77 222 4.0 14.0 0.00 0.00 0.00 45 1001.5
20260504181006 77 255 5.0 14.0 0.00 0.00 0.00 46 1001.5
20260504180506 77 225 6.0 13.0 0.00 0.00 0.00 46 1001.5
20260504180005 76 235 5.0 14.0 0.00 0.00 0.00 48 1001.6
20260504175007 76 292 3.0 12.0 0.00 0.00 0.00 48 1001.6
20260504174505 76 224 3.0 13.0 0.00 0.00 0.00 48 1001.7
20260504174006 76 308 3.0 13.0 0.00 0.00 0.00 47 1001.7
20260504173506 75 274 5.0 13.0 0.00 0.00 0.00 47 1001.8
20260504173006 75 233 6.0 13.0 0.00 0.00 0.00 48 1001.7
20260504172505 75 270 5.0 12.0 0.00 0.00 0.00 47 1001.7
20260504171505 75 274 3.0 12.0 0.00 0.00 0.00 51 1001.8
20260504170506 74 225 4.0 14.0 0.00 0.00 0.00 49 1001.9
20260504151006 69 272 4.0 16.0 0.00 0.00 0.00 54 1002.2
20260504150506 69 240 5.0 15.0 0.00 0.00 0.00 55 1002.2
20260504140506 67 247 3.0 13.0 0.00 0.00 0.00 55 1002.2
20260504130505 64 225 3.0 12.0 0.00 0.00 0.00 58 1002.1
20260504100505 66 228 2.0 9.0 0.00 0.00 0.00 51 1002.6
20260504081505 67 211 2.0 7.0 0.00 0.00 0.00 49 1003.7
20260504081005 67 225 2.0 7.0 0.00 0.00 0.00 49 1003.7
20260504080506 67 223 2.0 7.0 0.00 0.00 0.00 50 1003.8
20260504050505 64 238 1.0 3.0 0.00 0.00 0.00 61 1006.4
20260504045505 64 234 1.0 2.0 0.00 0.00 0.00 60 1006.3
20260504045005 65 234 1.0 2.0 0.00 0.00 0.00 58 1006.2
20260504044505 66 234 0.0 1.0 0.00 0.00 0.00 55 1006.0
20260504044005 67 234 0.0 1.0 0.00 0.00 0.00 54 1005.9
20260504043505 67 234 0.0 1.0 0.00 0.00 0.00 53 1005.8
20260504043005 67 234 0.0 1.0 0.00 0.00 0.00 52 1005.8
20260504042505 68 234 0.0 1.0 0.00 0.00 0.00 52 1005.8
20260504042005 68 234 0.0 1.0 0.00 0.00 0.00 51 1005.9